Weather WX

World > North America > United States > New York

Dutchess County, New York Regional Weather

Lat: 41.75N, Lon: 73.74W
Wx Zone: NYZ065
Feedback

Dutchess County, NY Regional Weather

Expires:201906200600;;768047
ASUS41 KOKX 200513
RWROKX

Regional Weather Roundup
National Weather Service New York NY
100 AM EDT THU JUN 20 2019

Note: "FAIR" indicates few or no clouds below 12,000 feet with no
significant weather and/or obstructions to visibility.


NYZ052-065-067-200600-
Hudson Valley
  
CITY           SKY/WX    TMP DP  RH WIND       PRES   REMARKS
White Plains   FOG       64  63  96 E6        29.74F VSB 1            
Larchmont Harb   N/A     63 N/A N/A NE12        N/A                   
Croton On Huds   N/A     66 N/A N/A MISG        N/A                   
Somers           N/A     64  64 100 E6          N/A                   
Brewster         N/A     64  64 100 N2          N/A                   
Newburgh       CLOUDY    66  66 100 CALM      29.75F                  
Montgomery     CLOUDY    66  66 100 CALM      29.73F                  
Otisville        N/A     66  66 100 E1          N/A                   
Warwick          N/A     66  66 100 NE2         N/A                   
Suffern          N/A     64  64 100 S1          N/A                   
Poughkeepsie   CLOUDY    68  64  87 SE3       29.73F                  
Albany         CLOUDY    70  64  81 S8        29.74S                  
$$
 

SKY/WX - Weather  TMP - Temperature  DP - Dew Point  RH - Relative Humidity
WIND - Wind Direction/Speed PRES - Barometric Pressure VSB - Visibility
WCI - Wind Chill Index E13G22 Wind - East Wind 13 mph/Gusts of 22 mph